Hurghada, Egypt

3:23 PM EET on July 23, 2017 (GMT +0200)
Hurghada

Weather History for HEGN - October, 2012

Change the Weather History Date:

Wednesday, October 10, 2012

  Actual Average Record
Temperature  
Mean Temperature 82 °F -  
Max Temperature 90 °F 82 °F 99 °F (2014)
Min Temperature 74 °F 68 °F 66 °F (2013)
Cooling Degree Days 17    
Growing Degree Days 32 (Base 50)    
Moisture  
Dew Point 56 °F    
Average Humidity 41    
Maximum Humidity 62    
Minimum Humidity 23    
Precipitation  
Precipitation 0.00 in - - ()
Sea Level Pressure  
Sea Level Pressure 29.82 in    
Wind  
Wind Speed 8 mph ()    
Max Wind Speed 18 mph    
Max Gust Speed -    
Visibility 6.0 miles    
Events      
Averages and records for this station are not official NWS values.
T = Trace of Precipitation, MM = Missing Value Source: Averaged Metar Reports

Daily Weather History Graph

Daily Weather History Graph

Search for Another Location

Airport or City:

Trip Planner

Search our weather history database for the weather conditions in past years. The results will help you decide how hot, cold, wet, or windy it might be!

Date:

Astronomy

Oct. 10, 2012 Rise Set
Actual Time 5:42 AM EET 5:21 PM EET
Civil Twilight 5:18 AM EET 5:44 PM EET
Nautical Twilight 4:51 AM EET 6:11 PM EET
Astronomical Twilight 4:24 AM EET 6:38 PM EET
Moon 12:26 AM EET (10/10) 1:46 PM EET (10/10)
Length of Visible Light 12h 25m
Length of Day
11h 39m
Waning Crescent, 30% of the Moon is Illuminated
Oct 10
Waning Crescent
Oct 15
New
Oct 22
First Quarter
Oct 29
Full
Nov 7
Last Quarter

Hourly Weather History & Observations

Time (EET) Temp. Heat Index Dew Point Humidity Pressure Visibility Wind Dir Wind Speed Gust Speed Precip Events Conditions
12:00 AM 77.0 °F - 48.2 °F 36% 29.83 in - WNW 8.1 mph - N/A   Clear
1:00 AM 77.0 °F - 48.2 °F 36% 29.83 in - WNW 8.1 mph - N/A   Clear
2:00 AM 77 °F - 49 °F 27% 29.83 in 6 mi NW 10.4 mph - -  
2:00 AM 77.0 °F - 50.0 °F 39% 29.83 in - NW 10.4 mph - N/A   Clear
3:00 AM 75.2 °F - 51.8 °F 44% 29.80 in - WNW 9.2 mph - N/A   Clear
4:00 AM 75.2 °F - 55.4 °F 50% 29.80 in - NW 10.4 mph - N/A   Clear
5:00 AM 75.2 °F - 55.4 °F 50% 29.83 in - WNW 15.0 mph - N/A   Clear
6:00 AM 75.2 °F - 51.8 °F 44% 29.83 in - NW 13.8 mph - N/A   Clear
7:00 AM 77.0 °F - 51.8 °F 41% 29.83 in - WNW 16.1 mph - N/A   Clear
8:00 AM 81 °F - 53 °F 28% 29.85 in 6 mi NW 18.4 mph - -   Scattered Clouds
8:00 AM 80.6 °F 80.3 °F 53.6 °F 39% 29.83 in - NW 18.4 mph - N/A   Clear
9:00 AM 84.2 °F 82.8 °F 53.6 °F 35% 29.86 in - NW 17.3 mph - N/A   Clear
10:00 AM 86.0 °F 84.2 °F 53.6 °F 33% 29.86 in - North 4.6 mph - N/A   Clear
11:00 AM 86.0 °F 84.5 °F 55.4 °F 35% 29.83 in - North 10.4 mph - N/A   Clear
12:00 PM 87.8 °F 86.1 °F 55.4 °F 33% 29.80 in - NNE 9.2 mph - N/A   Clear
1:00 PM 87.8 °F 86.5 °F 57.2 °F 35% 29.77 in - NNE 10.4 mph - N/A   Clear
2:00 PM 89 °F - 56 °F 23% 29.78 in 6 mi NE 9.2 mph - -  
2:00 PM 89.6 °F 87.7 °F 55.4 °F 31% 29.77 in - NE 9.2 mph - N/A   Clear
3:00 PM 89.6 °F 88.1 °F 57.2 °F 33% 29.77 in - East 6.9 mph - N/A   Clear
4:00 PM 82.4 °F 85.4 °F 68.0 °F 62% 29.80 in - ENE 5.8 mph - N/A   Clear
5:00 PM 87.8 °F 87.6 °F 60.8 °F 40% 29.77 in - ESE 4.6 mph - N/A   Clear
6:00 PM 84.2 °F 86.6 °F 66.2 °F 55% 29.80 in - ESE 2.3 mph - N/A   Clear
7:00 PM 84.2 °F 86.6 °F 66.2 °F 55% 29.80 in - ESE 3.5 mph - N/A   Clear
8:00 PM 81 °F - 66 °F 51% 29.83 in 6 mi SE 3.5 mph - -  
8:00 PM 80.6 °F 82.7 °F 66.2 °F 61% 29.83 in - SE 3.5 mph - N/A   Clear
9:00 PM 78.8 °F - 55.4 °F 44% 29.83 in - WSW 4.6 mph - N/A   Clear
10:00 PM 77.0 °F - 51.8 °F 41% 29.83 in - West 2.3 mph - N/A   Clear
11:00 PM 77.0 °F - 51.8 °F 41% 29.83 in - West 2.3 mph - N/A   Clear